{"data":{"norad_id":58845,"epoch":"2026-09-20T22:33:13.974912Z","epoch_age_seconds":114482,"freshness":"FRESH","line1":"1 58845U 24017V   26263.93974508  .00001317  00000+0  50106-4 0  9995","line2":"2 58845  53.1591 105.3454 0001058  88.5933 271.5191 15.34392499148691","mean_motion":15.34392499,"eccentricity":0.0001058,"inclination_deg":53.1591,"raan_deg":105.3454,"arg_perigee_deg":88.5933,"mean_anomaly_deg":271.5191,"bstar":5.0106e-5,"rev_number":14869,"period_min":93.848216863578,"perigee_km":462.00177159451,"apogee_km":463.44929810688,"semimajor_km":6840.8625348507,"source":"CELESTRAK","updated_at":"2026-09-21T09:00:33.986274Z"}}